Weather History for KSKX - November, 2010

Change the Weather History Date:

Sunday, November 7, 2010

  Actual Average Record
Temperature  
Mean Temperature 45 °F -  
Max Temperature 64 °F 50 °F 68 °F (2004)
Min Temperature 26 °F 22 °F 8 °F (2008)
Degree Days  
Heating Degree Days 20    
Moisture  
Dew Point 20 °F    
Average Humidity 42    
Maximum Humidity 69    
Minimum Humidity 16    
Precipitation  
Precipitation 0.00 in - - ()
Sea Level Pressure  
Sea Level Pressure 30.25 in    
Wind  
Wind Speed 6 mph (WNW)    
Max Wind Speed 21 mph    
Max Gust Speed 28 mph    
Visibility 10 miles    
Events      
Averages and records for this station are not official NWS values.
T = Trace of Precipitation, MM = Missing Value Source: NWS Daily Summary

Daily Weather History Graph

Daily Weather History Graph

Search for Another Location

Airport or City:

Trip Planner

Search our weather history database for the weather conditions in past years. The results will help you decide how hot, cold, wet, or windy it might be!

Date:

Astronomy

Nov. 07, 2010 Rise Set
Actual Time 6:31 AM MST 5:00 PM MST
Civil Twilight 6:04 AM MST 5:27 PM MST
Nautical Twilight 5:34 AM MST 5:58 PM MST
Astronomical Twilight 5:03 AM MST 6:28 PM MST
Moon 8:16 AM MST (11/7) 6:06 PM MST (11/7)
Length of Visible Light 11h 22m
Length of Day
10h 28m
Waxing Crescent, 3% of the Moon is Illuminated
Nov 7
Waxing Crescent
Nov 13
First Quarter
Nov 21
Full
Nov 28
Last Quarter
Dec 5
New

Hourly Weather History & Observations

Time (MST) Temp. Windchill Dew Point Humidity Pressure Visibility Wind Dir Wind Speed Gust Speed Precip Events Conditions
12:15 AM 37.4 °F - 21.2 °F 52% 30.32 in 10.0 mi Calm Calm - N/A   Clear
12:35 AM 33.8 °F 30.8 °F 19.4 °F 56% 30.31 in 10.0 mi North 3.5 mph - N/A   Clear
12:55 AM 33.8 °F - 21.2 °F 60% 30.31 in 10.0 mi Calm Calm - N/A   Clear
1:15 AM 30.2 °F 24.3 °F 17.6 °F 60% 30.30 in 10.0 mi NNE 5.8 mph - N/A   Clear
1:35 AM 33.8 °F 29.6 °F 21.2 °F 60% 30.30 in 10.0 mi NNE 4.6 mph - N/A   Clear
1:55 AM 33.8 °F 28.6 °F 21.2 °F 60% 30.30 in 10.0 mi North 5.8 mph - N/A   Clear
1:15 AM 28.4 °F 21.2 °F 17.6 °F 64% 30.30 in 10.0 mi North 6.9 mph - N/A   Clear
1:35 AM 30.2 °F 23.4 °F 19.4 °F 64% 30.30 in 10.0 mi North 6.9 mph - N/A   Clear
1:55 AM 30.2 °F 23.4 °F 19.4 °F 64% 30.30 in 10.0 mi North 6.9 mph - N/A   Clear
2:15 AM 30.2 °F 26.7 °F 21.2 °F 69% 30.30 in 10.0 mi NNE 3.5 mph - N/A   Clear
2:35 AM 32.0 °F - 21.2 °F 64% 30.30 in 10.0 mi Calm Calm - N/A   Clear
2:55 AM 33.8 °F 30.8 °F 21.2 °F 60% 30.30 in 10.0 mi NNE 3.5 mph - N/A   Clear
3:15 AM 30.2 °F - 21.2 °F 69% 30.29 in 10.0 mi Calm Calm - N/A   Clear
3:35 AM 26.6 °F 20.0 °F 15.8 °F 64% 30.30 in 10.0 mi NNW 5.8 mph - N/A   Clear
3:55 AM 26.6 °F 17.5 °F 17.6 °F 69% 30.30 in 10.0 mi North 9.2 mph - N/A   Clear
4:15 AM 30.2 °F 21.9 °F 19.4 °F 64% 30.29 in 10.0 mi NNE 9.2 mph - N/A   Clear
4:35 AM 30.2 °F 26.7 °F 21.2 °F 69% 30.29 in 10.0 mi East 3.5 mph - N/A   Clear
5:15 AM 30.2 °F - 19.4 °F 64% 30.29 in 10.0 mi Calm Calm - N/A   Clear
5:35 AM 30.2 °F 23.4 °F 21.2 °F 69% 30.28 in 10.0 mi NNE 6.9 mph - N/A   Clear
5:55 AM 30.2 °F 25.4 °F 19.4 °F 64% 30.28 in 10.0 mi North 4.6 mph - N/A   Clear
6:15 AM 30.2 °F 26.7 °F 21.2 °F 69% 30.29 in 10.0 mi North 3.5 mph - N/A   Clear
6:35 AM 28.4 °F - 19.4 °F 69% 30.29 in 10.0 mi Calm Calm - N/A   Clear
7:35 AM 30.2 °F 25.4 °F 19.4 °F 64% 30.31 in 10.0 mi North 4.6 mph - N/A   Clear
7:55 AM 30.2 °F 24.3 °F 19.4 °F 64% 30.32 in 10.0 mi North 5.8 mph - N/A   Clear
8:15 AM 37.4 °F - 24.8 °F 60% 30.32 in 10.0 mi Calm Calm - N/A   Clear
8:35 AM 44.6 °F - 26.6 °F 49% 30.32 in 10.0 mi Calm Calm - N/A   Clear
8:55 AM 50.0 °F - 24.8 °F 37% 30.31 in 10.0 mi West 4.6 mph - N/A   Clear
9:15 AM 51.8 °F - 26.6 °F 38% 30.31 in 10.0 mi SSW 4.6 mph - N/A   Clear
9:35 AM 53.6 °F - 26.6 °F 35% 30.30 in 10.0 mi SE 3.5 mph - N/A   Clear
9:55 AM 55.4 °F - 26.6 °F 33% 30.30 in 10.0 mi SW 9.2 mph - N/A   Clear
10:15 AM 55.4 °F - 26.6 °F 33% 30.29 in 10.0 mi SW 9.2 mph - N/A   Clear
10:55 AM 57.2 °F - 26.6 °F 31% 30.27 in 10.0 mi South 6.9 mph - N/A   Clear
11:15 AM 60.8 °F - 26.6 °F 27% 30.26 in 10.0 mi West 8.1 mph 18.4 mph N/A   Clear
11:35 AM 60.8 °F - 24.8 °F 25% 30.25 in 10.0 mi WSW 9.2 mph 17.3 mph N/A   Clear
11:55 AM 62.6 °F - 23.0 °F 22% 30.23 in 10.0 mi West 18.4 mph 23.0 mph N/A   Clear
12:15 PM 62.6 °F - 21.2 °F 20% 30.22 in 10.0 mi SW 20.7 mph 27.6 mph N/A   Clear
12:35 PM 62.6 °F - 21.2 °F 20% 30.21 in 10.0 mi West 12.7 mph 23.0 mph N/A   Clear
12:55 PM 62.6 °F - 21.2 °F 20% 30.20 in 10.0 mi SW 12.7 mph 25.3 mph N/A   Clear
1:15 PM 62.6 °F - 21.2 °F 20% 30.19 in 10.0 mi SW 17.3 mph 20.7 mph N/A   Clear
1:35 PM 62.6 °F - 21.2 °F 20% 30.18 in 10.0 mi SW 20.7 mph 25.3 mph N/A   Clear
1:55 PM 64.4 °F - 21.2 °F 19% 30.18 in 10.0 mi West 15.0 mph 26.5 mph N/A   Clear
2:15 PM 64.4 °F - 21.2 °F 19% 30.18 in 10.0 mi West 11.5 mph 26.5 mph N/A   Clear
2:35 PM 62.6 °F - 19.4 °F 19% 30.18 in 10.0 mi West 16.1 mph 25.3 mph N/A   Clear
2:55 PM 62.6 °F - 17.6 °F 18% 30.18 in 10.0 mi West 17.3 mph 24.2 mph N/A   Clear
3:15 PM 62.6 °F - 15.8 °F 16% 30.18 in 10.0 mi West 13.8 mph 24.2 mph N/A   Clear
3:35 PM 62.6 °F - 17.6 °F 18% 30.18 in 10.0 mi West 12.7 mph 20.7 mph N/A   Clear
3:55 PM 60.8 °F - 15.8 °F 17% 30.19 in 10.0 mi WNW 17.3 mph - N/A   Clear
4:15 PM 60.8 °F - 17.6 °F 19% 30.18 in 10.0 mi West 13.8 mph 19.6 mph N/A   Clear
4:35 PM 57.2 °F - 15.8 °F 20% 30.19 in 10.0 mi West 10.4 mph - N/A   Clear
4:55 PM 55.4 °F - 15.8 °F 21% 30.19 in 10.0 mi WNW 9.2 mph - N/A   Clear
5:15 PM 51.8 °F - 15.8 °F 24% 30.19 in 10.0 mi West 10.4 mph - N/A   Clear
5:35 PM 48.2 °F - 15.8 °F 27% 30.20 in 10.0 mi West 10.4 mph - N/A   Clear
5:55 PM 46.4 °F 42.4 °F 14.0 °F 27% 30.20 in 10.0 mi NW 8.1 mph - N/A   Clear
6:15 PM 44.6 °F 39.7 °F 14.0 °F 29% 30.20 in 10.0 mi WNW 9.2 mph - N/A   Clear
6:35 PM 42.8 °F 37.0 °F 15.8 °F 34% 30.20 in 10.0 mi NW 10.4 mph - N/A   Clear
6:55 PM 42.8 °F 38.0 °F 15.8 °F 34% 30.21 in 10.0 mi NW 8.1 mph - N/A   Clear
7:15 PM 41.0 °F 36.4 °F 14.0 °F 33% 30.21 in 10.0 mi WNW 6.9 mph - N/A   Clear
7:35 PM 42.8 °F - 15.8 °F 34% 30.21 in 10.0 mi Calm Calm - N/A   Clear
7:55 PM 42.8 °F - 15.8 °F 34% 30.20 in 10.0 mi Calm Calm - N/A   Clear
8:15 PM 42.8 °F - 15.8 °F 34% 30.20 in 10.0 mi Calm Calm - N/A   Clear
8:35 PM 41.0 °F 39.0 °F 15.8 °F 36% 30.19 in 10.0 mi NNE 3.5 mph - N/A   Clear
8:55 PM 37.4 °F 34.9 °F 14.0 °F 38% 30.19 in 10.0 mi NNE 3.5 mph - N/A   Clear
9:35 PM 37.4 °F - 15.8 °F 41% 30.19 in 10.0 mi Calm Calm - N/A   Clear
9:55 PM 33.8 °F - 14.0 °F 44% 30.19 in 10.0 mi Calm Calm - N/A   Clear
10:15 PM 33.8 °F 30.8 °F 14.0 °F 44% 30.20 in 10.0 mi ESE 3.5 mph - N/A   Clear
10:35 PM 35.6 °F 31.7 °F 15.8 °F 44% 30.20 in 10.0 mi ESE 4.6 mph - N/A   Clear
10:55 PM 33.8 °F 30.8 °F 15.8 °F 48% 30.20 in 10.0 mi East 3.5 mph - N/A   Clear